Home   Weather   Bologna   Past weeks

Flag for Italy Past Weather in Bologna, Italy — Yesterday and Last 2 Weeks

48 °F


Feels Like: 45 °F
Forecast: 43 / 61 °F
Wind: 7 mph from South

Location: Bologna / Borgo Panigale

Current Time: Oct 22, 2016 at 1:45:47 AM

Latest Report: Oct 22, 2016 at 12:50 AM

Visibility: 10 mi

Pressure: 29.98 "Hg

Humidity: 87%

Dew Point: 45 °F

Location of BolognaLocation

Past Weather in Bologna — Graph


Bologna Temperature Yesterday

Maximum temperature yesterday: 61 °F (at 2:50 PM)
Minimum temperature yesterday: 48 °F (at 8:50 PM)
Average temperature yesterday: 53 °F

High & Low Weather Summary for the Past Weeks

High68 °F (Oct 16, 2:50 PM)100% (Oct 10, 2:20 AM)30.27 "Hg (Oct 10, 2:20 AM)
Low43 °F (Oct 11, 4:50 AM)37% (Oct 12, 3:20 PM)29.83 "Hg (Oct 14, 11:50 PM)
Average55 °F85%30.03 "Hg
* Reported Oct 6 11:20 PM — Oct 21 11:50 PM, Bologna, Weather by CustomWeather, © 2016

Note: Actual official high and low records may vary slightly from our data, if they occured in-between our weather recording intervals... More about our weather records


Bologna Weather History for the Previous 24 Hours

Scroll right to see more
Time TempWeatherWind HumidityBarometerVisibility
11:50 PM
Fri, Oct 21
48 °FClear.2 mph87%29.98 "Hg10 mi
11:20 PM48 °FClear.6 mph94%29.98 "Hg10 mi
10:50 PM48 °FClear.3 mph94%29.95 "Hg10 mi
10:20 PM50 °FClear.3 mph88%29.95 "Hg10 mi
9:50 PM50 °FClear.3 mph88%29.95 "Hg10 mi
9:20 PM50 °FClear.2 mph88%29.95 "Hg10 mi
8:50 PM48 °FClear.1 mph87%29.95 "Hg10 mi
8:20 PM50 °FClear.2 mph88%29.95 "Hg10 mi
7:50 PM52 °FClear.2 mph82%29.92 "Hg10 mi
7:20 PM52 °FClear.2 mph82%29.92 "Hg10 mi
6:50 PM54 °FClear.5 mph77%29.92 "Hg10 mi
6:20 PM57 °FClear.3 mph67%29.92 "Hg10 mi
5:50 PM59 °FSunny.3 mph63%29.89 "Hg10 mi
5:20 PM59 °FPassing clouds.3 mph63%29.89 "HgN/A
4:50 PM61 °FPassing clouds.5 mph55%29.89 "HgN/A
4:20 PM61 °FPassing clouds.3 mph59%29.89 "HgN/A
3:50 PM61 °FPassing clouds.5 mph63%29.89 "HgN/A
3:20 PM61 °FPassing clouds.3 mph55%29.89 "HgN/A
2:50 PM61 °FPassing clouds.2 mph55%29.89 "HgN/A
2:20 PM59 °FPassing clouds.2 mph63%29.92 "HgN/A
1:50 PM59 °FScattered clouds.5 mph63%29.92 "HgN/A
1:20 PM59 °FScattered clouds.6 mph63%29.92 "HgN/A
12:50 PM59 °FScattered clouds.3 mph63%29.92 "HgN/A
12:20 PM57 °FScattered clouds.3 mph67%29.95 "HgN/A
11:50 AM57 °FPassing clouds.2 mph67%29.95 "HgN/A
11:20 AM55 °FPassing clouds.5 mph72%29.92 "HgN/A
10:50 AM55 °FPassing clouds.6 mph77%29.92 "HgN/A
10:20 AM54 °FScattered clouds.5 mph82%29.92 "HgN/A
9:50 AM54 °FScattered clouds.3 mph82%29.92 "HgN/A
9:20 AM54 °FScattered clouds.3 mph82%29.92 "Hg4 mi
8:50 AM52 °FBroken clouds.3 mph94%29.92 "Hg4 mi
8:20 AM50 °FBroken clouds.5 mph94%29.92 "Hg4 mi
7:50 AM50 °FFog.5 mph94%29.92 "Hg3 mi
7:20 AM50 °FFog.3 mph94%29.92 "Hg3 mi
6:50 AM50 °FPassing clouds.2 mph94%29.89 "Hg5 mi
6:20 AM50 °FFog.3 mph100%29.89 "Hg3 mi
5:50 AM50 °FFog.3 mph100%29.89 "Hg2 mi
5:20 AM50 °FFog.6 mph100%29.89 "Hg2 mi
4:50 AM50 °FFog.6 mph100%29.89 "Hg1 mi
4:20 AM50 °FPartly cloudy.3 mph100%29.89 "Hg5 mi
3:50 AM50 °FPartly cloudy.2 mph100%29.92 "Hg5 mi
3:20 AM50 °FPassing clouds.3 mph100%29.92 "Hg5 mi
2:50 AM50 °FPartly cloudy.3 mph100%29.92 "Hg5 mi
1:50 AM50 °FFog.No wind94%29.92 "Hg5 mi
1:20 AM52 °FPassing clouds.No wind94%29.92 "HgN/A
Weather by CustomWeather, © 2016

See weather overviewHow to use our weather pages